カタログに戻る

SL-14 DEB

運用中PO
NORAD 19230·DEBRIS·🇷🇺 Russia

打ち上げ Oct 26, 1978 から Plesetsk Cosmodrome

Loading…

次のパス (今後24時間)

TLE

最新Source: Space-Track

元期: Sep 14, 2026, 03:10 UTC

1 19230U 78100Z   26257.13204203  .00000055  00000-0  57680-3 0  9997
2 19230  82.5353 310.0338 0017590  75.8315 311.8500 11.98787903677003

AllMySatでSL-14 DEBをリアルタイム追跡

Download on the App Store